Location: Lake Harris Campground
(43.9775°N, 74.1317°W)
Time: 21:58:38
(UTC-04:00)

ISS - All Passes

Search period start: 16 October 2017 00:00
Search period end: 26 October 2017 00:00
Orbit: 401 x 408 km, 51.6° (Epoch: 17 October)

Date Brightness Start Highest point End Pass type
(mag) Time Alt. Az. Time Alt. Az. Time Alt. Az.
16 Oct - 11:17:30 10° S 11:19:35 16° SE 11:21:40 10° E daylight
16 Oct - 12:52:27 10° WSW 12:55:42 71° NNW 12:58:58 10° NE daylight
16 Oct - 14:29:53 10° WNW 14:32:35 23° N 14:35:19 10° NE daylight
16 Oct - 16:07:06 10° NW 16:09:48 23° N 16:12:31 10° ENE daylight
16 Oct - 17:43:26 10° NW 17:46:43 68° NNE 17:49:59 10° ESE daylight
16 Oct - 19:20:38 10° W 19:22:53 17° SW 19:25:06 10° S visible
17 Oct - 12:00:14 10° SW 12:03:27 65° SE 12:06:42 10° ENE daylight
17 Oct - 13:37:15 10° W 13:40:08 28° NNW 13:43:03 10° NE daylight
17 Oct - 15:14:44 10° NW 15:17:19 21° N 15:19:54 10° NE daylight
17 Oct - 16:51:13 10° NW 16:54:23 42° NNE 16:57:32 10° E daylight
17 Oct - 18:27:51 10° WNW 18:30:47 30° SW 18:33:43 10° SSE daylight
18 Oct - 11:08:16 10° SSW 11:11:16 35° SE 11:14:17 10° ENE daylight
18 Oct - 12:44:38 10° W 12:47:44 38° NNW 12:50:50 10° NE daylight
18 Oct - 14:22:15 10° NW 14:24:49 21° N 14:27:23 10° NE daylight
18 Oct - 15:59:01 10° NW 16:01:59 30° NNE 16:04:56 10° E daylight
18 Oct - 17:35:23 10° WNW 17:38:37 56° SW 17:41:49 10° SE daylight
19 Oct - 10:16:43 10° S 10:19:08 20° SE 10:21:35 10° E daylight
19 Oct - 11:52:08 10° WSW 11:55:22 59° NNW 11:58:35 10° NE daylight
19 Oct - 13:29:39 10° WNW 13:32:18 22° N 13:34:58 10° NE daylight
19 Oct - 15:06:45 10° NW 15:09:31 24° NNE 15:12:17 10° ENE daylight
19 Oct - 16:43:04 10° WNW 16:46:21 82° NNE 16:49:38 10° ESE daylight
19 Oct - 18:20:38 10° W 18:22:25 14° SW 18:24:11 10° SSW daylight
20 Oct - 09:26:16 10° SE 09:27:05 11° SE 09:27:54 10° ESE daylight
20 Oct - 10:59:48 10° SW 11:03:02 81° SSE 11:06:18 10° ENE daylight
20 Oct - 12:36:58 10° WNW 12:39:48 26° NNW 12:42:38 10° NE daylight
20 Oct - 14:14:23 10° NW 14:17:00 21° N 14:19:37 10° ENE daylight
20 Oct - 15:50:48 10° NW 15:54:00 49° NNE 15:57:12 10° ESE daylight
20 Oct - 17:27:35 10° W 17:30:20 25° SW 17:33:04 10° SSE daylight
21 Oct - 10:07:42 10° SW 10:10:48 43° SE 10:13:55 10° ENE daylight
21 Oct - 11:44:19 10° W 11:47:20 34° NNW 11:50:22 10° NE daylight
21 Oct - 13:21:54 10° NW 13:24:27 21° N 13:27:01 10° NE daylight
21 Oct - 14:58:33 10° NW 15:01:35 34° NNE 15:04:37 10° E daylight
21 Oct - 16:35:00 10° WNW 16:38:08 45° SW 16:41:17 10° SE daylight
22 Oct - 09:15:56 10° SSW 09:18:36 24° SE 09:21:18 10° E daylight
22 Oct - 10:51:43 10° WSW 10:54:54 50° NNW 10:58:06 10° NE daylight
22 Oct - 12:29:17 10° WNW 12:31:53 21° N 12:34:31 10° NE daylight
22 Oct - 14:06:16 10° NW 14:09:06 26° NNE 14:11:56 10° ENE daylight
22 Oct - 15:42:35 10° WNW 15:45:52 83° SSW 15:49:08 10° SE daylight
22 Oct - 17:20:48 10° WSW 17:21:51 11° SW 17:22:53 10° SSW daylight
23 Oct - 08:24:49 10° SSE 08:26:29 13° SE 08:28:09 10° E daylight
23 Oct - 09:59:16 10° WSW 10:02:31 84° NNW 10:05:48 10° ENE daylight
23 Oct - 11:36:36 10° WNW 11:39:21 24° NNW 11:42:07 10° NE daylight
23 Oct - 13:13:55 10° NW 13:16:33 22° N 13:19:13 10° ENE daylight
23 Oct - 14:50:16 10° NW 14:53:31 58° NNE 14:56:44 10° ESE daylight
23 Oct - 16:27:14 10° W 16:29:44 20° SW 16:32:14 10° S daylight
24 Oct - 09:07:02 10° SW 09:10:13 54° SE 09:13:25 10° ENE daylight
24 Oct - 10:43:53 10° W 10:46:50 31° NNW 10:49:47 10° NE daylight
24 Oct - 12:21:26 10° NW 12:23:59 21° N 12:26:33 10° NE daylight
24 Oct - 13:57:59 10° NW 14:01:04 38° NNE 14:04:09 10° E daylight
24 Oct - 15:34:30 10° WNW 15:37:32 36° SW 15:40:34 10° SSE daylight
25 Oct - 08:15:05 10° SSW 08:17:58 29° SE 08:20:51 10° ENE daylight
25 Oct - 09:51:12 10° W 09:54:20 43° NNW 09:57:29 10° NE daylight
25 Oct - 11:28:49 10° NW 11:31:23 21° N 11:33:58 10° NE daylight
25 Oct - 13:05:41 10° NW 13:08:34 28° NNE 13:11:27 10° ENE daylight
25 Oct - 14:42:00 10° WNW 14:45:15 68° SW 14:48:29 10° SE daylight
